QPF
0.00 0.00 0.00 0.00 0.00 0.00 0.00 0.00 0.00 0.00 0.00 0.00 0.00 0.00 0.00 0.00 0.03 0.02 0.04 0.00 0.00 0.00 0.00 0.00 0.00 0.00 0.00 0.00 0.00 0.00 0.00 0.00 0.00 0.00 0.00 0.00 0.00 0.00 0.00 0.00 0.00 0.00 0.00 0.00 0.00 0.00 0.00 0.00 0.00
0.00 0.00 0.00 0.00 0.00 0.00 0.00 0.00 0.00 0.00 0.00 0.00 0.00 0.00 0.00 0.00 0.00 0.00 0.00 0.00 0.00 0.00 0.00 0.00 0.00 0.00 0.00 0.00 0.00 0.00 0.00 0.00 0.00 0.00 0.00 0.00 0.00 0.00 0.00 0.00 0.00 0.00 0.00 0.00 0.00 0.00 0.00 0.00 0.00
0.00 0.00 0.00 0.00 0.00 0.00 0.00 0.00 0.00 0.00 0.00 0.00 0.00 0.00 0.00 0.00 0.00 0.00 0.00 0.00 0.00 0.00 0.00 0.00 0.00 0.00 0.00 0.00 0.00 0.00 0.00 0.00 0.00 0.00 0.00 0.00 0.00 0.00 0.00 0.00 0.00 0.00 0.00 0.00 0.00 0.00 0.00 0.00 0.00
0.00 0.00 0.00 0.00 0.00 0.00 0.00 0.00 0.00 0.00 0.00 0.00 0.00 0.00 0.00 0.00 0.00 0.00 0.00 0.00 0.00 0.00 0.00 0.00 0.00 0.00 0.00 0.00 0.00 0.00 0.00 0.00 0.00 0.00 0.00 0.00 0.00 0.00 0.00 0.00 0.00 0.00 0.00 0.00 0.00 0.00 0.00 0.00 0.00
0.00 0.00 0.00 0.00 0.00 0.00 0.00 0.00 0.00 0.00 0.00 0.00 0.00 0.00 0.00 0.00 0.00 0.00 0.00 0.00 0.00 0.00 0.00 0.00 0.00 0.00 0.00 0.00 0.00 0.00 0.00 0.00 0.00 0.00 0.00 0.00 0.00 0.00 0.00 0.00 0.00 0.00 0.00 0.00 0.00 0.00 0.00 0.00 0.00
0.00 0.00 0.00 0.00 0.00 0.00 0.00 0.00 0.00 0.00 0.00 0.00 0.00 0.00 0.00 0.00 0.00 0.00 0.00 0.00 0.00 0.00 0.00 0.00 0.00 0.00 0.00 0.00 0.00 0.00 0.00 0.00 0.00 0.00 0.00 0.00 0.00 0.00 0.00 0.00 0.00 0.00 0.00 0.00 0.00 0.00 0.00 0.00 0.00
0.00 0.00 0.00 0.00 0.00 0.00 0.00 0.00 0.00 0.00 0.00 0.00 0.00 0.00 0.00 0.00 0.00 0.00 0.00 0.00 0.00 0.00 0.00 0.00 0.00 0.00 0.00 0.00 0.00 0.00 0.00 0.00 0.00 0.00 0.00 0.00 0.00 0.00 0.00 0.00 0.00 0.00 0.00 0.00 0.00 0.00 0.00 0.00 0.00
0.00 0.00 0.00 0.00 0.00 0.00 0.00 0.00 0.00 0.00 0.00 0.00 0.00 0.00 0.00 0.00 0.00 0.00 0.00 0.00 0.00 0.00 0.00 0.00 0.00 0.00 0.00 0.00 0.00 0.00 0.00 0.00 0.00 0.00 0.00 0.00 0.00 0.00 0.00 0.00 0.00 0.00 0.00 0.00 0.00 0.00 0.00 0.00 0.00
0.00 0.00 0.00 0.00 0.00 0.00 0.00 0.00 0.00 0.00 0.00 0.00 0.00 0.00 0.00 0.00 0.00 0.00 0.00 0.00 0.00 0.00 0.00 0.00 0.00 0.00 0.00 0.00 0.00 0.00 0.00 0.00 0.00 0.00 0.00 0.00 0.00 0.00 0.00 0.00 0.00 0.00 0.00 0.00 0.00 0.00 0.00 0.00 0.00
0.00 0.00 0.00 0.00 0.00 0.00 0.00 0.00 0.00 0.00 0.00 0.00 0.00 0.00 0.00 0.00 0.00 0.00 0.00 0.00 0.00 0.00 0.00 0.00 0.00 0.00 0.00 0.00 0.00 0.00 0.00 0.00 0.00 0.00 0.00 0.00 0.00 0.00 0.00 0.00 0.00 0.00 0.00 0.00 0.00 0.00 0.00 0.00 0.00
0.00 0.00 0.00 0.00 0.00 0.00 0.00 0.00 0.00 0.00 0.00 0.00 0.00 0.00 0.00 0.00 0.00 0.00 0.00 0.00 0.00 0.00 0.00 0.00 0.00 0.00 0.00 0.00 0.00 0.00 0.00 0.00 0.00 0.00 0.00 0.00 0.00 0.00 0.00 0.00 0.00 0.00 0.00 0.00 0.00 0.00 0.00 0.00 0.00
0.00 0.00 0.00 0.00 0.00 0.00 0.00 0.00 0.00 0.00 0.00 0.00 0.00 0.00 0.00 0.00 0.00 0.00 0.00 0.00 0.00 0.00 0.00 0.00 0.00 0.00 0.00 0.00 0.00 0.00 0.00 0.00 0.00 0.00 0.00 0.00 0.00 0.00 0.00 0.00 0.00 0.00 0.00 0.00 0.00 0.00 0.00 0.00 0.00
0.00 0.00 0.00 0.00 0.00 0.00 0.00 0.00 0.00 0.00 0.00 0.00 0.00 0.00 0.00 0.00 0.00 0.00 0.00 0.00 0.00 0.00 0.00 0.00 0.00 0.00 0.00 0.00 0.00 0.00 0.00 0.00 0.00 0.00 0.00 0.00 0.00 0.00 0.00 0.00 0.00 0.00 0.00 0.00 0.00 0.00 0.00 0.00 0.00
0.00 0.00 0.00 0.00 0.00 0.00 0.00 0.00 0.00 0.00 0.00 0.00 0.00 0.00 0.00 0.00 0.00 0.00 0.00 0.00 0.00 0.00 0.00 0.00 0.00 0.01 0.01 0.00 0.00 0.00 0.00 0.00 0.00 0.00 0.00 0.00 0.00 0.00 0.00 0.00 0.00 0.00 0.00 0.00 0.00 0.00 0.00 0.00 0.00
0.00 0.00 0.00 0.00 0.00 0.00 0.00 0.00 0.00 0.00 0.00 0.00 0.00 0.00 0.00 0.00 0.00 0.00 0.00 0.00 0.00 0.01 0.00 0.01 0.04 0.06 0.13 0.03 0.00 0.00 0.00 0.00 0.00 0.00 0.00 0.00 0.00 0.00 0.00 0.00 0.00 0.00 0.00 0.00 0.00 0.00 0.00 0.00 0.00
0.00 0.00 0.00 0.00 0.00 0.00 0.00 0.00 0.00 0.00 0.00 0.00 0.00 0.00 0.00 0.00 0.00 0.00 0.00 0.00 0.01 0.00 0.00 0.01 0.06 0.19 0.25 0.07 0.00 0.00 0.00 0.00 0.00 0.00 0.00 0.00 0.00 0.00 0.00 0.00 0.00 0.00 0.00 0.00 0.00 0.00 0.00 0.00 0.00
0.00 0.00 0.00 0.00 0.00 0.00 0.00 0.00 0.00 0.00 0.00 0.00 0.00 0.00 0.00 0.00 0.00 0.00 0.00 0.00 0.00 0.00 0.00 0.00 0.07 0.16 0.16 0.06 0.03 0.00 0.00 0.00 0.00 0.00 0.00 0.00 0.00 0.00 0.00 0.00 0.00 0.00 0.00 0.00 0.00 0.00 0.00 0.00 0.00
0.00 0.00 0.00 0.00 0.00 0.00 0.00 0.00 0.00 0.00 0.00 0.00 0.00 0.00 0.00 0.00 0.00 0.00 0.00 0.00 0.00 0.00 0.00 0.00 0.01 0.03 0.05 0.02 0.01 0.00 0.00 0.00 0.00 0.00 0.00 0.00 0.00 0.00 0.00 0.00 0.00 0.00 0.00 0.00 0.00 0.00 0.00 0.00 0.00
0.00 0.00 0.00 0.00 0.00 0.00 0.00 0.00 0.00 0.00 0.00 0.00 0.00 0.00 0.00 0.00 0.00 0.00 0.00 0.00 0.01 0.00 0.00 0.00 0.01 0.01 0.00 0.00 0.00 0.00 0.00 0.00 0.00 0.00 0.00 0.00 0.00 0.00 0.00 0.00 0.00 0.00 0.00 0.00 0.00 0.00 0.00 0.00 0.00
0.00 0.00 0.00 0.00 0.00 0.00 0.00 0.00 0.00 0.00 0.00 0.00 0.00 0.00 0.00 0.00 0.00 0.00 0.01 0.01 0.01 0.00 0.00 0.00 0.00 0.00 0.00 0.00 0.00 0.00 0.00 0.00 0.00 0.00 0.00 0.00 0.00 0.00 0.00 0.00 0.00 0.00 0.00 0.00 0.00 0.00 0.00 0.00 0.00
0.00 0.00 0.00 0.00 0.00 0.00 0.00 0.00 0.00 0.00 0.00 0.00 0.00 0.00 0.00 0.00 0.00 0.00 0.00 0.00 0.00 0.00 0.00 0.00 0.00 0.00 0.00 0.00 0.00 0.00 0.00 0.00 0.00 0.00 0.00 0.00 0.00 0.00 0.00 0.00 0.00 0.00 0.00 0.00 0.00 0.00 0.00 0.00 0.00
0.00 0.00 0.00 0.00 0.00 0.00 0.00 0.00 0.00 0.00 0.00 0.00 0.00 0.00 0.00 0.00 0.00 0.00 0.00 0.00 0.00 0.00 0.00 0.00 0.00 0.00 0.00 0.00 0.00 0.00 0.00 0.00 0.00 0.00 0.00 0.00 0.00 0.00 0.00 0.00 0.00 0.00 0.00 0.00 0.00 0.00 0.00 0.00 0.00
0.00 0.00 0.00 0.00 0.00 0.00 0.00 0.00 0.00 0.00 0.00 0.00 0.00 0.00 0.00 0.00 0.00 0.00 0.00 0.00 0.00 0.00 0.00 0.00 0.00 0.00 0.00 0.00 0.00 0.00 0.00 0.00 0.00 0.00 0.00 0.00 0.00 0.00 0.00 0.00 0.00 0.00 0.00 0.00 0.00 0.00 0.00 0.00 0.00
0.00 0.00 0.00 0.00 0.00 0.00 0.00 0.01 0.00 0.00 0.00 0.00 0.00 0.00 0.00 0.00 0.00 0.00 0.00 0.00 0.00 0.00 0.00 0.00 0.00 0.00 0.00 0.00 0.00 0.00 0.00 0.00 0.00 0.00 0.00 0.00 0.00 0.00 0.00 0.00 0.00 0.00 0.00 0.00 0.00 0.00 0.00 0.00 0.00
0.00 0.00 0.00 0.01 0.02 0.01 0.03 0.03 0.02 0.00 0.00 0.00 0.00 0.00 0.00 0.00 0.00 0.00 0.00 0.00 0.00 0.00 0.00 0.00 0.00 0.00 0.00 0.00 0.00 0.00 0.00 0.00 0.00 0.00 0.00 0.00 0.00 0.00 0.00 0.00 0.00 0.00 0.00 0.00 0.00 0.00 0.00 0.00 0.00
0.00 0.00 0.00 0.00 0.00 0.01 0.01 0.00 0.00 0.00 0.00 0.00 0.00 0.00 0.00 0.00 0.00 0.00 0.00 0.00 0.00 0.00 0.00 0.00 0.00 0.00 0.00 0.00 0.00 0.00 0.00 0.00 0.00 0.00 0.00 0.00 0.00 0.00 0.00 0.00 0.00 0.00 0.00 0.00 0.00 0.00 0.00 0.00 0.00
0.00 0.00 0.00 0.00 0.00 0.00 0.00 0.00 0.00 0.00 0.00 0.00 0.00 0.00 0.00 0.00 0.00 0.00 0.00 0.00 0.00 0.00 0.00 0.00 0.00 0.00 0.00 0.00 0.00 0.00 0.00 0.00 0.00 0.00 0.00 0.00 0.00 0.00 0.00 0.00 0.00 0.00 0.00 0.00 0.00 0.00 0.00 0.00 0.00
0.00 0.00 0.00 0.00 0.00 0.00 0.00 0.00 0.00 0.00 0.00 0.00 0.00 0.00 0.00 0.00 0.00 0.00 0.00 0.00 0.00 0.00 0.00 0.00 0.00 0.00 0.00 0.00 0.00 0.00 0.00 0.00 0.00 0.00 0.00 0.00 0.00 0.00 0.00 0.00 0.00 0.00 0.00 0.00 0.00 0.00 0.00 0.00 0.00
0.00 0.00 0.00 0.00 0.00 0.00 0.00 0.00 0.00 0.00 0.00 0.00 0.00 0.00 0.00 0.00 0.00 0.00 0.00 0.00 0.00 0.00 0.00 0.00 0.00 0.00 0.00 0.00 0.00 0.00 0.00 0.00 0.00 0.00 0.00 0.00 0.00 0.00 0.00 0.00 0.00 0.00 0.00 0.00 0.00 0.00 0.00 0.00 0.00
0.00 0.00 0.00 0.00 0.00 0.00 0.00 0.00 0.00 0.00 0.00 0.00 0.00 0.00 0.00 0.00 0.00 0.00 0.00 0.00 0.00 0.00 0.00 0.00 0.00 0.00 0.00 0.00 0.00 0.00 0.00 0.00 0.00 0.00 0.00 0.00 0.00 0.00 0.00 0.00 0.00 0.00 0.00 0.01 0.01 0.00 0.00 0.00 0.00
MSLP
1011.91 1011.74 1012.09 1012.35 1012.75 1012.13 1011.25 1010.14 1008.28 1007.81 1008.17 1008.74 1009.08 1010.05 1011.89 1012.40 1013.34 1015.83 1016.59 1016.45 1016.84 1017.51 1017.60 1017.60 1017.90 1018.19 1018.31 1018.43 1018.55 1018.78 1019.01 1019.13 1019.25 1019.39 1019.61 1019.71 1019.91 1019.97 1020.19 1020.32 1020.36 1020.24 1020.32 1020.08 1020.19 1020.40 1020.44 1020.50 1020.31
1012.02 1011.91 1011.98 1011.95 1012.32 1011.83 1010.94 1009.71 1008.83 1008.53 1008.78 1009.09 1009.81 1010.88 1011.56 1013.55 1013.62 1015.19 1016.29 1016.79 1016.78 1017.40 1017.74 1017.88 1018.06 1018.34 1018.51 1018.60 1018.76 1019.02 1019.16 1019.33 1019.46 1019.76 1019.80 1019.85 1020.20 1020.34 1020.56 1020.63 1020.48 1020.34 1020.43 1020.30 1020.37 1020.27 1020.42 1020.49 1020.61
1012.22 1012.26 1012.39 1012.06 1011.73 1010.75 1010.24 1009.49 1008.64 1008.62 1008.41 1008.88 1010.17 1010.96 1012.37 1014.03 1014.34 1015.11 1016.06 1016.70 1017.16 1017.77 1017.99 1018.23 1018.45 1018.71 1018.83 1019.01 1019.07 1019.33 1019.39 1019.45 1019.59 1019.82 1020.01 1020.22 1020.48 1020.70 1020.69 1020.87 1020.87 1020.62 1020.64 1020.62 1020.61 1020.53 1020.55 1020.63 1020.66
1012.23 1012.30 1012.17 1011.76 1010.61 1009.26 1009.29 1009.02 1008.59 1008.63 1009.02 1009.40 1010.24 1012.73 1013.68 1014.10 1014.63 1015.30 1016.16 1016.59 1017.34 1018.20 1018.47 1018.61 1018.66 1018.86 1019.03 1019.22 1019.25 1019.49 1019.74 1019.78 1020.00 1020.05 1020.11 1020.44 1020.66 1021.01 1021.03 1021.16 1021.29 1021.00 1020.79 1020.84 1020.84 1020.84 1020.76 1020.78 1020.80
1012.56 1012.71 1012.45 1011.84 1010.84 1009.79 1008.85 1008.38 1008.75 1009.34 1010.16 1010.77 1011.19 1014.14 1014.68 1014.78 1014.75 1015.32 1016.19 1016.63 1017.61 1018.61 1018.82 1018.82 1019.02 1018.98 1019.18 1019.26 1019.54 1019.66 1019.73 1019.86 1019.95 1020.05 1020.33 1020.69 1020.72 1020.98 1021.25 1021.39 1021.43 1021.55 1021.22 1021.25 1021.08 1021.05 1021.02 1020.97 1020.82
1012.50 1012.38 1012.48 1011.91 1010.51 1009.50 1008.71 1008.58 1008.62 1009.43 1010.21 1011.46 1012.51 1013.88 1015.10 1015.13 1015.32 1015.77 1016.30 1017.02 1017.72 1018.44 1018.82 1018.89 1019.16 1019.14 1019.32 1019.51 1019.64 1019.83 1019.93 1020.06 1020.38 1020.47 1020.72 1020.99 1020.95 1021.03 1021.40 1021.49 1021.68 1021.65 1021.49 1021.45 1021.23 1021.07 1021.03 1020.94 1020.75
1012.24 1012.62 1012.27 1011.63 1010.58 1009.45 1008.83 1008.59 1009.14 1009.88 1010.51 1011.55 1012.66 1014.07 1015.29 1015.37 1015.58 1015.93 1016.49 1017.01 1017.74 1018.35 1018.62 1018.94 1018.92 1019.21 1019.40 1019.61 1019.75 1020.19 1020.28 1020.32 1020.19 1020.43 1020.71 1021.07 1021.34 1021.28 1021.34 1021.29 1021.48 1021.38 1021.36 1021.26 1021.25 1021.04 1020.92 1020.73 1020.71
1011.32 1011.94 1011.44 1010.91 1010.34 1009.87 1009.14 1009.39 1009.81 1010.14 1010.83 1011.69 1012.00 1013.81 1015.30 1015.32 1015.59 1015.93 1016.53 1017.08 1017.44 1017.76 1018.19 1018.80 1019.12 1019.39 1019.54 1019.61 1019.59 1019.71 1020.05 1020.44 1020.57 1020.42 1020.56 1020.95 1021.07 1021.22 1020.91 1021.17 1021.35 1021.32 1021.08 1021.12 1021.16 1021.01 1020.87 1020.72 1020.81
1010.84 1011.48 1010.97 1010.26 1009.78 1009.95 1009.33 1009.66 1010.01 1010.40 1011.06 1011.53 1011.86 1013.24 1014.53 1015.08 1015.46 1016.16 1016.84 1017.09 1017.37 1017.77 1018.31 1018.62 1019.12 1019.29 1019.59 1019.63 1019.47 1019.72 1019.85 1019.78 1020.16 1020.42 1020.48 1020.52 1020.91 1020.90 1020.89 1021.02 1021.20 1021.15 1021.10 1021.12 1020.98 1020.81 1020.75 1020.69 1020.69
1010.23 1010.59 1010.04 1008.73 1009.48 1009.82 1009.83 1009.91 1010.22 1011.01 1011.68 1012.80 1013.61 1014.10 1014.62 1015.15 1015.80 1016.27 1016.82 1017.08 1017.33 1017.64 1018.11 1018.27 1018.82 1019.01 1019.29 1019.04 1019.42 1019.87 1020.15 1020.15 1019.87 1020.40 1020.39 1020.37 1020.57 1020.63 1020.66 1020.95 1021.03 1020.91 1021.01 1021.05 1020.88 1020.64 1020.51 1020.53 1020.48
1008.89 1009.50 1009.45 1009.28 1009.16 1009.41 1010.01 1010.24 1010.48 1011.22 1012.14 1012.67 1013.74 1014.47 1014.85 1015.33 1015.86 1016.21 1016.44 1016.51 1016.63 1016.97 1017.64 1017.90 1017.96 1018.34 1018.58 1018.89 1019.35 1019.79 1019.85 1020.18 1020.04 1020.19 1020.08 1019.94 1020.11 1020.45 1020.62 1021.01 1021.03 1021.02 1021.02 1020.98 1020.70 1020.58 1020.52 1020.37 1020.21
1008.75 1009.01 1009.14 1009.45 1009.26 1009.38 1010.08 1010.30 1010.74 1011.00 1011.52 1011.99 1012.87 1013.55 1014.26 1015.22 1015.73 1015.70 1015.81 1016.07 1016.42 1016.93 1017.54 1017.55 1017.63 1017.83 1018.16 1018.65 1019.15 1019.61 1019.67 1020.10 1019.70 1019.87 1019.85 1019.91 1020.31 1020.44 1020.62 1020.81 1020.75 1020.80 1020.63 1020.73 1020.68 1020.67 1020.31 1020.16 1019.99
1008.83 1009.28 1009.29 1009.45 1009.61 1009.68 1010.07 1010.33 1010.80 1011.14 1011.23 1011.88 1012.73 1013.40 1014.01 1014.55 1014.91 1014.88 1015.04 1015.47 1016.10 1016.67 1016.91 1016.83 1016.57 1017.09 1017.95 1018.30 1018.74 1019.14 1019.54 1019.56 1019.59 1019.69 1019.59 1019.70 1020.24 1020.40 1020.51 1020.49 1020.46 1020.43 1020.37 1020.37 1020.25 1020.17 1020.00 1019.89 1019.71
1008.78 1009.34 1009.81 1009.91 1009.95 1009.96 1010.20 1010.39 1010.64 1011.35 1011.19 1012.24 1012.67 1013.19 1013.59 1013.80 1014.11 1014.31 1014.57 1015.02 1015.86 1016.04 1016.22 1016.22 1017.17 1018.44 1018.43 1018.60 1019.08 1019.01 1019.18 1019.23 1019.38 1019.50 1019.52 1019.60 1020.08 1020.33 1020.55 1020.67 1020.68 1020.57 1020.44 1020.33 1020.20 1020.12 1019.97 1019.77 1019.53
1008.80 1009.82 1010.01 1010.34 1010.25 1010.31 1010.39 1011.06 1010.98 1011.28 1011.27 1011.95 1012.50 1012.90 1013.15 1013.14 1013.59 1013.97 1014.18 1014.63 1015.40 1015.78 1016.16 1017.47 1018.33 1018.47 1019.30 1018.68 1018.61 1019.17 1019.08 1019.11 1019.38 1019.36 1019.26 1019.38 1019.60 1020.06 1020.40 1020.70 1020.78 1020.64 1020.41 1020.19 1019.97 1019.82 1019.78 1019.69 1019.23
1009.31 1009.94 1010.55 1010.28 1010.19 1010.35 1010.65 1011.17 1011.18 1011.02 1011.50 1012.20 1012.26 1012.43 1012.95 1013.19 1013.27 1013.70 1013.81 1014.66 1015.13 1015.92 1015.81 1017.27 1017.98 1019.70 1020.80 1019.59 1018.68 1019.12 1019.05 1019.01 1019.09 1019.33 1019.23 1019.26 1019.55 1019.81 1020.30 1020.54 1020.64 1020.51 1020.31 1020.19 1020.06 1020.05 1019.84 1019.57 1019.25
1009.90 1010.21 1010.51 1010.39 1009.95 1010.41 1010.78 1011.00 1010.77 1010.99 1011.39 1011.99 1012.52 1012.83 1012.99 1013.40 1013.91 1014.30 1014.83 1015.37 1015.92 1016.40 1016.56 1017.31 1018.68 1019.82 1020.34 1019.46 1019.29 1019.05 1018.76 1018.85 1019.00 1019.21 1019.53 1019.62 1019.76 1019.92 1020.24 1020.42 1020.47 1020.49 1020.62 1020.58 1020.52 1020.34 1020.19 1019.95 1019.56
1010.22 1009.99 1010.13 1010.30 1010.37 1010.46 1010.90 1011.41 1011.62 1011.42 1011.56 1012.19 1012.50 1013.26 1014.90 1015.04 1015.98 1016.14 1016.19 1016.21 1016.73 1016.90 1017.29 1017.49 1018.25 1019.02 1019.02 1018.81 1018.64 1018.96 1019.44 1019.61 1019.54 1019.72 1019.73 1019.70 1019.89 1019.96 1020.14 1020.17 1020.35 1020.48 1020.59 1020.67 1020.69 1020.61 1020.30 1020.09 1019.77
1010.06 1010.11 1010.59 1010.90 1010.80 1010.97 1011.43 1011.95 1012.17 1012.26 1012.24 1012.85 1014.02 1014.82 1015.85 1016.34 1016.96 1016.95 1017.22 1017.07 1017.24 1017.66 1017.91 1018.26 1018.33 1018.61 1018.76 1019.06 1019.50 1019.80 1020.18 1019.96 1019.86 1019.88 1019.82 1019.85 1020.16 1020.33 1020.29 1020.47 1020.52 1020.42 1020.60 1020.76 1020.79 1020.64 1020.55 1020.33 1019.92
1010.25 1010.69 1011.38 1011.43 1011.25 1011.44 1012.09 1012.77 1012.82 1012.95 1013.61 1013.82 1014.93 1015.90 1016.44 1016.98 1017.51 1017.95 1018.31 1018.39 1018.63 1018.81 1019.07 1019.14 1019.26 1019.57 1019.88 1019.88 1020.06 1020.09 1020.26 1020.04 1020.24 1020.40 1020.59 1020.63 1020.64 1020.64 1020.72 1020.94 1020.84 1020.64 1020.81 1020.89 1020.88 1020.81 1020.75 1020.60 1020.50
1011.30 1011.66 1012.01 1012.24 1012.12 1012.19 1012.60 1013.71 1013.57 1013.81 1013.98 1014.49 1015.58 1016.49 1017.04 1017.69 1018.33 1018.81 1019.24 1019.62 1019.64 1019.82 1019.97 1019.92 1019.92 1020.20 1020.34 1020.44 1020.44 1020.46 1020.48 1020.70 1020.97 1021.10 1021.16 1021.19 1021.25 1021.22 1021.19 1021.25 1021.20 1021.12 1021.02 1021.03 1020.92 1021.01 1021.13 1021.40 1021.38
1011.91 1012.29 1012.63 1013.04 1013.47 1013.52 1013.19 1014.52 1014.38 1014.30 1014.88 1015.39 1016.41 1017.11 1017.76 1018.24 1018.80 1019.29 1019.92 1020.45 1020.57 1020.59 1020.42 1020.29 1020.35 1020.39 1020.53 1020.67 1020.92 1021.33 1021.77 1021.98 1021.96 1021.78 1021.63 1021.56 1021.47 1021.45 1021.28 1021.32 1021.32 1021.20 1021.07 1021.08 1021.00 1021.11 1021.21 1021.24 1021.62
1012.67 1012.84 1013.26 1013.76 1014.35 1014.60 1014.00 1014.56 1014.92 1014.84 1015.67 1016.26 1016.89 1017.50 1018.15 1018.61 1019.17 1019.78 1020.15 1020.56 1020.66 1020.76 1020.74 1020.50 1020.68 1020.89 1020.89 1020.90 1021.03 1021.36 1021.65 1021.64 1021.70 1021.92 1022.16 1022.27 1022.10 1021.90 1021.76 1021.62 1021.49 1021.37 1021.22 1021.18 1021.27 1021.18 1021.13 1021.08 1021.21
1012.66 1013.21 1013.63 1014.30 1015.13 1015.69 1015.25 1014.99 1015.74 1015.30 1015.73 1016.52 1017.04 1017.70 1018.50 1018.88 1019.41 1019.74 1020.22 1020.58 1020.73 1020.72 1020.70 1020.75 1020.89 1020.94 1021.12 1021.33 1021.44 1021.66 1022.00 1022.10 1022.31 1022.45 1022.59 1022.53 1022.39 1022.24 1022.03 1021.89 1021.88 1021.67 1021.50 1021.43 1021.46 1021.43 1021.39 1021.38 1021.44
1013.11 1013.85 1014.98 1016.21 1016.89 1017.01 1015.86 1015.82 1016.49 1015.65 1015.50 1016.13 1017.19 1018.02 1018.67 1019.21 1019.74 1020.11 1020.33 1020.66 1020.90 1020.79 1020.92 1021.03 1020.98 1021.07 1021.22 1021.45 1021.72 1022.01 1022.25 1022.47 1022.68 1022.78 1022.74 1022.77 1022.59 1022.44 1022.32 1022.11 1022.02 1021.97 1021.82 1021.61 1021.44 1021.62 1021.88 1021.58 1021.57
1013.74 1014.57 1016.25 1017.75 1018.88 1018.38 1016.79 1016.93 1017.60 1016.78 1016.82 1017.27 1017.79 1018.26 1018.76 1019.31 1019.62 1019.89 1020.00 1020.31 1020.73 1020.88 1020.95 1020.97 1021.11 1021.32 1021.59 1021.72 1021.91 1022.10 1022.16 1022.38 1022.63 1022.74 1022.68 1022.60 1022.52 1022.55 1022.38 1022.18 1022.14 1022.17 1022.06 1021.95 1021.87 1021.82 1022.03 1021.71 1021.52
1014.23 1015.25 1016.21 1017.88 1019.41 1019.98 1018.67 1018.43 1017.76 1017.29 1017.48 1018.07 1018.24 1018.69 1019.15 1019.40 1019.54 1019.96 1020.18 1020.51 1020.83 1020.95 1021.12 1021.25 1021.29 1021.41 1021.64 1021.97 1022.02 1022.24 1022.40 1022.39 1022.48 1022.50 1022.49 1022.72 1022.90 1022.59 1022.61 1022.33 1022.37 1022.28 1022.17 1021.88 1021.52 1022.04 1021.96 1021.73 1021.50
1014.49 1015.45 1016.71 1018.48 1020.53 1020.99 1019.83 1019.01 1018.20 1017.85 1017.86 1018.22 1018.71 1019.05 1019.40 1019.73 1020.02 1020.42 1020.62 1020.75 1020.79 1020.88 1021.08 1021.16 1021.25 1021.62 1021.94 1022.09 1022.16 1022.27 1022.29 1022.36 1022.57 1022.66 1022.86 1022.97 1023.01 1022.77 1022.65 1022.38 1022.28 1022.20 1022.22 1022.12 1021.95 1021.76 1021.60 1021.39 1021.17
1015.25 1015.94 1017.19 1018.80 1020.76 1021.79 1021.41 1020.13 1018.19 1018.24 1018.24 1018.65 1019.19 1019.41 1019.67 1019.97 1020.47 1020.87 1021.00 1021.14 1021.12 1021.19 1021.41 1021.50 1021.68 1021.86 1021.94 1021.84 1021.93 1022.08 1022.39 1022.50 1022.62 1022.75 1022.80 1022.73 1022.69 1022.52 1022.54 1022.26 1022.11 1021.97 1021.84 1021.79 1021.79 1021.60 1021.29 1021.07 1020.91
1015.69 1016.50 1017.81 1020.11 1021.64 1022.43 1022.10 1020.45 1018.70 1018.67 1018.63 1018.92 1019.29 1019.36 1019.78 1020.26 1020.68 1020.86 1021.23 1021.64 1021.90 1021.80 1021.51 1021.70 1021.83 1021.85 1021.81 1021.74 1021.88 1021.93 1022.10 1022.13 1022.09 1022.14 1022.18 1021.95 1022.36 1022.21 1022.21 1022.05 1021.95 1021.81 1021.67 1021.42 1021.33 1021.20 1021.14 1021.31 1021.19
Thickness
5742 5747 5747 5739 5712 5714 5708 5727 5753 5751 5748 5760 5764 5753 5730 5729 5717 5687 5716 5718 5713 5706 5704 5704 5700 5697 5694 5691 5689 5687 5684 5682 5680 5678 5674 5671 5668 5666 5663 5661 5659 5659 5657 5657 5655 5652 5651 5649 5651
5737 5739 5739 5729 5702 5693 5700 5735 5731 5745 5751 5758 5756 5744 5736 5712 5728 5716 5711 5713 5709 5704 5702 5700 5697 5693 5690 5688 5685 5682 5680 5677 5675 5672 5672 5670 5666 5663 5659 5658 5658 5657 5655 5654 5653 5653 5650 5649 5647
5733 5735 5719 5708 5699 5689 5700 5729 5738 5751 5761 5757 5739 5743 5731 5711 5721 5714 5716 5711 5702 5700 5697 5694 5691 5687 5685 5683 5681 5679 5678 5677 5675 5673 5670 5666 5663 5659 5659 5656 5653 5655 5654 5653 5651 5650 5649 5647 5644
5722 5721 5719 5698 5699 5725 5723 5729 5743 5746 5748 5751 5745 5711 5720 5724 5713 5713 5712 5708 5703 5696 5692 5690 5688 5685 5683 5680 5680 5678 5676 5675 5672 5670 5668 5664 5659 5656 5655 5653 5650 5650 5651 5650 5648 5647 5646 5645 5643
5718 5710 5690 5694 5707 5724 5736 5743 5742 5732 5726 5725 5728 5697 5696 5710 5715 5714 5709 5705 5697 5691 5688 5687 5685 5685 5682 5682 5678 5677 5677 5675 5673 5671 5667 5661 5659 5655 5652 5649 5648 5645 5646 5644 5645 5644 5643 5642 5642
5703 5707 5681 5679 5708 5725 5735 5742 5742 5731 5727 5718 5710 5700 5692 5706 5706 5707 5704 5698 5693 5690 5687 5686 5682 5683 5681 5679 5678 5676 5674 5672 5668 5666 5661 5657 5656 5654 5648 5648 5644 5642 5642 5640 5642 5642 5640 5640 5640
5700 5690 5681 5690 5702 5716 5732 5743 5728 5723 5718 5713 5714 5691 5691 5697 5703 5702 5700 5697 5692 5689 5689 5685 5686 5682 5681 5678 5676 5670 5669 5668 5668 5662 5658 5653 5650 5648 5646 5645 5642 5641 5639 5639 5637 5638 5638 5638 5636
5707 5697 5691 5699 5698 5701 5732 5730 5728 5720 5711 5721 5723 5692 5680 5696 5702 5702 5699 5696 5695 5694 5691 5687 5684 5680 5679 5676 5675 5673 5668 5663 5659 5660 5656 5651 5649 5644 5646 5642 5638 5636 5638 5635 5633 5633 5633 5633 5630
5719 5686 5682 5695 5700 5705 5731 5719 5727 5729 5716 5719 5723 5710 5704 5705 5705 5699 5695 5694 5695 5694 5690 5685 5680 5678 5675 5674 5673 5670 5667 5666 5660 5657 5653 5651 5646 5645 5641 5637 5634 5632 5631 5629 5628 5628 5627 5627 5625
5703 5682 5699 5721 5712 5705 5718 5714 5718 5708 5703 5699 5700 5705 5706 5704 5699 5694 5691 5690 5691 5690 5689 5686 5680 5679 5674 5673 5670 5666 5661 5659 5658 5651 5648 5647 5644 5642 5639 5634 5631 5629 5626 5623 5622 5622 5622 5621 5620
5718 5696 5714 5713 5720 5721 5710 5712 5718 5701 5690 5701 5694 5697 5700 5699 5696 5694 5694 5696 5695 5693 5687 5683 5683 5679 5677 5675 5668 5661 5658 5654 5651 5646 5645 5644 5640 5634 5631 5627 5625 5623 5620 5619 5618 5617 5615 5615 5614
5701 5712 5716 5718 5721 5721 5712 5715 5710 5709 5707 5717 5714 5712 5706 5698 5695 5697 5698 5698 5695 5689 5685 5684 5683 5680 5675 5668 5663 5658 5655 5648 5648 5644 5642 5640 5634 5630 5625 5621 5619 5617 5616 5613 5612 5611 5610 5610 5609
5702 5708 5717 5721 5719 5720 5721 5714 5711 5709 5718 5720 5717 5712 5707 5704 5701 5705 5704 5703 5697 5688 5691 5690 5691 5685 5674 5669 5661 5654 5649 5645 5642 5640 5638 5635 5630 5625 5620 5618 5614 5611 5609 5606 5605 5604 5604 5603 5603
5714 5709 5707 5715 5716 5721 5713 5714 5716 5712 5721 5712 5712 5708 5707 5707 5706 5706 5703 5700 5691 5691 5692 5693 5684 5664 5663 5662 5654 5651 5647 5642 5638 5636 5633 5629 5624 5617 5612 5608 5604 5603 5600 5598 5597 5596 5597 5597 5596
5717 5699 5704 5706 5711 5710 5716 5698 5701 5715 5720 5712 5710 5708 5708 5710 5709 5706 5706 5698 5693 5689 5689 5674 5663 5659 5647 5654 5655 5645 5643 5637 5632 5631 5628 5624 5620 5610 5604 5598 5595 5593 5591 5590 5590 5589 5588 5587 5589
5706 5699 5677 5703 5710 5713 5707 5675 5704 5716 5711 5702 5707 5710 5705 5705 5706 5706 5706 5699 5696 5685 5689 5670 5659 5640 5619 5638 5646 5639 5635 5631 5626 5621 5617 5616 5611 5605 5596 5590 5586 5584 5583 5582 5581 5579 5577 5576 5575
5694 5670 5679 5693 5714 5710 5702 5688 5704 5712 5711 5704 5702 5702 5705 5699 5697 5697 5695 5692 5685 5679 5678 5672 5652 5640 5632 5637 5634 5630 5630 5625 5619 5611 5605 5600 5595 5592 5588 5583 5578 5575 5571 5567 5566 5565 5562 5561 5562
5675 5682 5693 5682 5705 5710 5698 5693 5696 5708 5712 5709 5708 5699 5680 5683 5676 5680 5680 5681 5675 5672 5668 5667 5658 5644 5639 5636 5633 5627 5619 5612 5607 5601 5596 5591 5585 5581 5576 5572 5568 5563 5559 5556 5552 5549 5548 5546 5545
5700 5694 5680 5689 5702 5701 5694 5688 5688 5695 5697 5695 5682 5681 5673 5670 5669 5671 5668 5668 5667 5660 5656 5653 5650 5644 5637 5628 5619 5613 5604 5601 5597 5590 5585 5579 5573 5569 5565 5560 5555 5551 5547 5542 5536 5533 5530 5529 5524
5698 5690 5677 5689 5702 5696 5688 5683 5684 5689 5683 5684 5677 5670 5667 5665 5661 5659 5656 5653 5648 5646 5643 5640 5635 5628 5620 5615 5610 5605 5597 5594 5586 5578 5570 5565 5561 5556 5550 5544 5539 5535 5530 5525 5520 5514 5512 5506 5497
5680 5674 5676 5677 5688 5695 5686 5666 5671 5680 5682 5680 5670 5666 5664 5659 5654 5651 5645 5639 5636 5633 5630 5626 5622 5615 5608 5603 5598 5593 5588 5580 5572 5565 5558 5551 5544 5536 5530 5525 5521 5515 5510 5504 5499 5493 5486 5479 5472
5669 5685 5681 5675 5665 5646 5678 5633 5655 5664 5662 5663 5657 5652 5650 5650 5648 5643 5632 5625 5622 5619 5618 5615 5610 5606 5600 5594 5585 5577 5567 5559 5555 5551 5546 5538 5531 5523 5515 5509 5502 5497 5491 5484 5477 5470 5462 5456 5447
5669 5682 5675 5672 5659 5656 5662 5641 5642 5654 5642 5646 5647 5647 5640 5638 5635 5630 5625 5621 5617 5613 5608 5604 5596 5589 5585 5584 5580 5571 5562 5555 5548 5539 5528 5519 5512 5506 5499 5491 5486 5478 5471 5462 5454 5446 5440 5435 5429
5682 5671 5669 5665 5653 5617 5649 5645 5631 5637 5640 5639 5645 5642 5633 5629 5624 5619 5616 5612 5608 5604 5599 5593 5586 5579 5573 5567 5561 5556 5549 5542 5533 5524 5514 5505 5496 5487 5477 5468 5459 5451 5444 5435 5427 5419 5413 5408 5402
5668 5651 5611 5610 5598 5605 5649 5640 5626 5642 5649 5643 5634 5627 5623 5619 5612 5606 5600 5594 5591 5592 5587 5584 5579 5573 5567 5559 5549 5539 5529 5521 5512 5502 5494 5484 5473 5463 5453 5447 5438 5429 5421 5414 5408 5397 5386 5382 5376
5656 5652 5597 5607 5586 5601 5647 5621 5614 5633 5633 5626 5623 5618 5616 5613 5611 5602 5599 5595 5587 5579 5574 5570 5565 5559 5552 5546 5538 5530 5521 5511 5499 5487 5476 5464 5454 5442 5433 5425 5415 5404 5397 5389 5381 5371 5360 5353 5346
5649 5628 5650 5616 5608 5584 5611 5619 5622 5631 5625 5618 5612 5606 5604 5604 5606 5599 5591 5584 5578 5572 5566 5561 5556 5550 5542 5532 5524 5514 5503 5493 5480 5468 5456 5442 5429 5417 5409 5401 5389 5380 5372 5364 5357 5344 5335 5328 5321
5653 5655 5611 5601 5587 5595 5603 5606 5597 5613 5615 5615 5604 5598 5594 5594 5589 5582 5578 5574 5571 5566 5558 5552 5545 5536 5526 5517 5507 5496 5487 5473 5459 5445 5431 5419 5405 5395 5384 5377 5367 5354 5343 5336 5328 5321 5315 5310 5305
5634 5629 5629 5621 5589 5569 5559 5580 5615 5608 5607 5601 5592 5591 5588 5589 5579 5574 5569 5565 5561 5556 5549 5541 5533 5523 5514 5504 5492 5477 5464 5452 5437 5423 5410 5397 5387 5375 5363 5352 5344 5335 5325 5315 5307 5302 5301 5297 5293
5647 5636 5626 5575 5588 5562 5552 5570 5615 5596 5596 5589 5588 5589 5582 5578 5572 5568 5563 5553 5544 5539 5535 5526 5516 5508 5499 5488 5474 5460 5447 5437 5425 5412 5395 5382 5367 5357 5345 5334 5324 5315 5309 5304 5297 5291 5286 5279 5274